Wind_Speed
12 13 13 13 13 13 14 14 14 14 15 15 15 15 15 15 15 16 16 16 16 17 16 17 18 20 19 19 20 21 20 19 18 17 16 16 15 15 14 13 11 9 7
11 12 12 12 12 12 12 13 13 13 13 14 14 14 14 15 15 15 16 17 17 17 17 17 18 19 20 21 21 22 23 22 21 20 19 18 17 17 16 15 13 11 9
10 11 11 11 11 11 11 11 11 12 12 13 13 13 13 14 14 15 16 17 17 17 18 18 18 20 21 22 22 22 23 24 24 22 21 20 19 19 18 17 16 14 12
9 10 11 11 11 11 11 11 11 11 11 12 12 13 13 14 14 14 15 17 17 18 18 19 19 19 20 22 23 23 23 25 26 25 24 23 22 21 21 20 18 17 15
9 10 10 10 10 10 11 11 11 11 11 12 12 12 13 14 14 14 15 16 17 18 19 19 20 20 20 22 23 24 24 25 27 27 27 26 25 24 23 22 21 19 18
9 9 9 9 9 9 10 10 11 11 12 12 12 12 13 13 14 15 15 16 17 18 19 20 21 21 22 23 23 24 25 26 27 28 29 29 28 27 26 25 24 23 21
8 8 8 9 9 10 10 10 11 12 12 13 13 13 13 13 14 14 15 16 17 18 19 20 21 22 23 24 24 25 25 26 27 28 30 31 31 30 29 28 27 26 24
8 8 9 9 10 10 10 11 11 12 12 13 13 13 13 14 14 15 15 16 17 18 19 20 22 23 24 24 26 26 27 28 28 29 29 31 33 33 33 32 30 29 28
7 8 8 9 10 11 11 12 12 13 13 14 14 14 15 15 15 15 16 17 17 18 19 20 22 23 25 25 26 28 28 29 29 30 31 32 33 34 35 34 33 32 31
7 7 8 9 11 12 12 13 13 13 14 14 15 16 16 16 17 17 17 18 18 19 20 21 22 24 25 26 28 28 30 30 31 32 32 33 34 35 36 36 36 35 34
6 8 9 10 11 12 13 14 14 15 15 16 16 17 18 18 19 19 20 20 20 21 22 23 23 24 26 27 28 29 30 31 33 33 34 34 35 35 36 38 38 38 37
7 8 9 11 12 13 14 15 16 16 17 17 18 18 19 19 20 21 22 22 23 23 24 25 26 27 27 28 29 30 31 32 33 34 35 35 36 36 36 38 39 40 39
8 9 10 11 13 14 15 16 18 19 19 19 19 19 20 20 20 21 22 23 24 26 27 28 29 30 30 31 31 32 33 33 34 35 36 36 37 37 37 37 39 41 41
9 11 12 13 14 16 17 18 20 21 22 22 21 21 21 21 21 22 23 24 25 26 28 29 31 32 33 34 34 35 35 36 36 37 37 38 39 39 39 39 39 40 42
11 13 14 15 17 18 19 21 22 23 24 24 24 23 23 23 23 23 24 24 26 27 29 30 32 33 34 36 37 38 38 39 39 39 39 40 41 41 41 41 42 42 42
14 15 17 18 19 20 21 22 23 25 25 25 25 24 24 24 25 25 25 25 26 27 29 31 32 33 34 36 38 40 41 42 42 43 42 42 42 42 43 43 43 44 43
16 18 19 20 21 22 23 24 25 26 26 26 26 27 27 27 27 26 26 27 27 27 28 30 32 33 33 35 37 39 41 43 45 46 46 46 45 45 45 45 45 45 45
19 20 21 21 23 24 25 26 27 28 28 28 28 28 28 29 29 28 29 29 29 29 29 30 32 33 34 34 36 37 40 42 45 47 48 48 48 48 47 47 47 47 47
21 22 23 24 25 26 27 28 29 30 30 30 30 30 30 30 31 31 31 31 31 31 30 30 31 33 34 35 36 37 38 40 43 45 47 49 50 50 50 50 49 48 48
24 25 26 26 27 28 29 30 30 31 31 32 32 32 32 32 32 33 33 33 33 32 32 31 32 33 34 35 36 36 37 38 40 42 45 47 49 50 51 51 51 51 50
26 27 28 28 29 30 31 32 33 33 33 34 34 34 34 34 34 34 34 34 34 34 33 33 33 33 34 35 36 36 36 37 38 40 42 45 47 49 50 52 52 53 52
28 29 30 31 32 33 33 34 34 35 35 36 36 36 35 35 35 35 35 35 35 35 35 34 34 34 35 35 36 35 35 36 37 39 40 41 44 47 49 50 52 53 53
31 32 32 33 34 35 36 36 36 37 37 37 37 37 37 37 36 36 35 36 36 36 36 35 34 34 35 36 36 36 35 35 36 38 39 40 42 44 47 49 50 52 53
33 34 35 36 36 38 38 38 39 39 39 39 39 38 39 39 38 37 36 36 37 37 37 35 34 34 35 36 36 36 35 35 35 37 38 39 41 43 44 46 48 50 52
36 37 38 39 39 40 40 41 41 40 40 41 41 41 40 40 40 39 37 37 37 38 37 35 35 35 35 36 36 36 35 35 35 36 38 38 39 42 43 44 46 48 50
39 40 41 41 42 42 43 43 44 43 43 42 43 43 42 41 41 40 39 39 38 38 37 36 36 35 35 36 36 36 35 35 35 35 37 38 38 40 41 43 45 47 49
Wind_Direction
304 305 305 302 299 296 294 291 290 288 285 281 280 276 270 265 261 258 259 261 260 260 259 256 251 246 237 231 228 225 223 219 217 216 214 212 211 210 209 207 206 208 209
305 307 309 308 307 304 302 298 296 291 287 287 285 281 275 270 264 261 259 261 261 259 259 255 250 246 241 233 231 228 224 222 220 218 217 216 214 213 213 212 212 212 214
313 316 316 315 313 312 311 306 302 298 292 286 285 284 280 273 268 265 261 260 259 257 255 253 252 247 243 238 233 231 228 224 221 221 220 219 218 216 215 216 216 217 218
321 320 318 316 314 313 312 311 308 302 298 292 287 285 282 277 274 270 265 260 258 257 255 254 251 248 245 243 239 236 232 228 224 222 222 222 221 219 218 218 219 220 221
325 324 321 319 315 312 310 310 309 304 301 298 293 288 285 280 276 272 268 263 261 258 257 255 251 250 246 246 244 242 238 234 228 225 224 223 223 223 222 222 222 222 223
330 328 325 324 320 318 316 313 310 308 305 303 300 294 289 285 279 274 271 266 263 260 258 256 254 252 249 248 247 245 244 239 235 232 228 226 225 225 225 224 225 225 226
335 334 333 331 329 327 325 323 319 315 311 308 305 301 294 289 285 279 275 269 266 262 259 256 255 255 251 249 247 246 246 244 240 238 235 231 228 227 227 226 226 227 228
342 342 343 343 340 337 333 329 325 320 317 313 309 306 302 296 290 285 279 274 269 267 263 260 256 255 253 251 248 247 247 246 244 241 239 236 233 230 229 228 228 228 229
350 353 354 353 350 346 343 339 335 328 321 317 313 309 305 301 296 290 285 279 274 269 266 263 259 256 254 252 250 248 247 247 246 244 243 239 237 234 232 230 229 229 230
360 1 358 355 352 350 349 346 340 335 329 323 317 312 307 302 298 293 288 283 279 274 269 265 262 259 257 255 253 251 249 248 247 246 246 243 241 238 234 233 232 231 230
1 360 358 355 352 350 348 346 342 337 331 325 320 314 309 304 299 295 290 285 280 277 273 269 265 262 259 257 255 253 252 250 248 247 246 245 244 242 239 235 233 232 232
348 348 348 348 348 347 345 343 341 338 332 327 321 315 310 305 301 297 292 287 282 278 274 270 267 264 262 259 257 254 253 251 249 247 246 245 244 243 242 239 236 234 233
330 331 333 336 338 339 339 339 338 335 332 328 323 318 313 309 304 299 295 290 286 281 276 272 268 265 262 260 258 257 254 253 251 249 248 246 244 244 243 241 238 236 235
317 319 322 325 328 329 330 331 330 329 327 326 323 319 315 312 307 303 299 294 290 286 281 276 271 267 264 261 259 257 255 253 252 250 249 247 245 244 243 241 240 239 238
308 312 316 319 321 322 322 323 323 323 322 323 322 319 316 314 310 307 303 299 295 291 286 281 275 270 265 262 260 257 255 253 252 251 249 248 246 245 243 242 241 241 240
303 306 311 314 316 316 317 318 319 320 320 319 319 318 316 314 312 309 306 302 299 295 290 286 281 276 270 264 261 258 256 254 252 251 249 248 246 245 244 243 241 240 240
299 302 306 309 311 313 314 315 317 319 319 318 317 316 315 314 312 311 309 306 303 299 293 288 285 282 277 271 265 261 258 255 253 251 250 249 248 246 245 244 243 242 241
298 301 304 306 308 311 313 314 316 316 316 316 316 315 314 313 312 311 309 308 306 302 296 290 287 284 281 276 271 266 261 258 255 253 251 249 248 247 245 244 243 243 241
297 300 301 304 306 309 311 312 313 314 314 314 314 313 312 312 311 311 309 309 307 304 298 293 289 286 283 279 275 270 265 261 257 255 253 251 249 247 246 244 243 242 242
295 299 300 302 304 307 309 310 310 311 312 312 312 311 310 310 310 309 308 308 307 304 300 295 291 288 284 281 277 273 268 264 260 257 254 252 250 248 246 244 243 242 241
295 297 299 301 303 305 306 308 308 309 309 310 310 309 308 308 308 308 308 307 306 304 301 297 293 289 285 282 279 275 271 267 264 260 257 254 251 249 247 245 243 242 241
294 295 297 299 302 304 305 306 306 307 307 307 308 308 307 307 307 307 307 306 305 304 302 298 294 289 285 283 280 277 272 268 265 262 259 256 253 249 247 245 244 242 241
292 294 296 297 300 302 303 304 304 305 305 305 306 306 306 306 305 305 305 305 304 303 301 299 295 290 286 283 280 278 274 269 266 263 260 257 255 251 248 246 244 243 241
292 293 295 296 298 300 301 302 303 304 304 303 303 303 303 304 304 304 303 303 303 303 301 299 295 290 286 282 280 278 275 271 267 264 260 257 255 253 250 248 245 243 241
291 293 294 296 298 299 299 300 301 302 302 302 302 302 302 302 303 303 302 302 302 301 300 298 295 291 287 283 280 277 274 271 268 266 263 259 255 254 251 249 246 244 242
291 292 294 295 296 297 297 298 299 299 300 300 301 300 300 301 301 301 301 301 300 300 298 297 295 291 288 284 281 277 274 272 269 266 264 262 258 254 251 250 248 246 243
Height
5873 5872 5871 5870 5870 5869 5868 5867 5867 5867 5867 5867 5868 5868 5869 5870 5871 5872 5873 5874 5875 5876 5877 5878 5880 5881 5884 5886 5888 5890 5893 5895 5897 5899 5901 5903 5905 5907 5908 5910 5912 5913 5914
5871 5870 5869 5868 5867 5866 5866 5865 5864 5864 5864 5865 5865 5865 5866 5867 5867 5868 5869 5870 5871 5872 5873 5875 5876 5877 5879 5882 5884 5886 5889 5891 5894 5896 5899 5901 5903 5905 5907 5909 5910 5912 5913
5869 5868 5867 5866 5865 5864 5864 5863 5862 5862 5862 5862 5862 5862 5863 5863 5864 5864 5865 5866 5867 5868 5869 5871 5872 5873 5875 5877 5879 5882 5885 5887 5890 5893 5895 5898 5900 5902 5904 5907 5908 5910 5912
5867 5866 5866 5865 5863 5863 5862 5861 5861 5860 5860 5860 5859 5860 5860 5860 5860 5861 5861 5862 5863 5864 5866 5867 5868 5869 5871 5873 5874 5877 5880 5882 5885 5889 5891 5894 5897 5899 5901 5904 5906 5908 5910
5866 5865 5864 5863 5862 5861 5860 5860 5859 5858 5858 5857 5857 5857 5857 5857 5857 5858 5858 5859 5859 5860 5862 5863 5864 5865 5867 5869 5871 5873 5875 5877 5880 5883 5887 5890 5893 5896 5898 5901 5903 5905 5907
5865 5864 5863 5862 5861 5860 5859 5858 5857 5856 5856 5855 5855 5855 5854 5854 5854 5855 5855 5855 5856 5856 5857 5859 5860 5861 5863 5864 5866 5868 5870 5873 5875 5878 5881 5885 5888 5891 5894 5897 5899 5902 5904
5864 5863 5862 5861 5860 5859 5858 5856 5855 5854 5854 5853 5852 5852 5852 5851 5851 5851 5851 5852 5852 5853 5853 5854 5856 5857 5858 5860 5862 5863 5865 5867 5870 5873 5876 5879 5882 5886 5889 5892 5895 5898 5900
5863 5862 5861 5860 5859 5857 5856 5855 5854 5853 5852 5851 5850 5849 5849 5849 5848 5848 5848 5848 5848 5848 5849 5850 5851 5852 5853 5855 5856 5858 5860 5862 5864 5867 5869 5872 5876 5879 5883 5886 5889 5893 5896
5862 5861 5860 5859 5857 5856 5855 5853 5852 5851 5849 5848 5847 5847 5846 5845 5844 5844 5844 5843 5844 5844 5844 5845 5846 5846 5848 5849 5851 5852 5854 5856 5858 5860 5863 5866 5869 5873 5876 5880 5883 5887 5890
5861 5860 5859 5858 5856 5855 5853 5852 5850 5849 5847 5846 5844 5843 5842 5841 5841 5840 5840 5839 5839 5839 5839 5840 5840 5841 5842 5843 5845 5846 5848 5850 5852 5854 5856 5859 5862 5865 5869 5873 5876 5880 5884
5860 5859 5858 5856 5855 5853 5852 5850 5848 5847 5845 5843 5841 5840 5838 5837 5836 5835 5835 5834 5834 5834 5834 5834 5834 5835 5836 5837 5838 5840 5841 5843 5845 5847 5849 5852 5855 5858 5861 5865 5869 5872 5876
5858 5857 5856 5855 5853 5852 5850 5848 5846 5844 5842 5840 5838 5836 5835 5833 5832 5830 5829 5828 5828 5828 5827 5827 5828 5828 5829 5830 5831 5832 5834 5835 5837 5839 5841 5844 5847 5850 5853 5857 5860 5864 5868
5856 5856 5854 5853 5851 5849 5847 5845 5843 5841 5839 5837 5835 5833 5830 5828 5827 5825 5823 5822 5821 5820 5820 5820 5820 5820 5821 5822 5823 5824 5825 5827 5829 5831 5834 5836 5839 5842 5845 5848 5852 5855 5860
5854 5853 5851 5850 5848 5846 5844 5842 5840 5838 5835 5833 5830 5828 5826 5823 5821 5819 5818 5816 5814 5813 5812 5811 5811 5812 5812 5813 5814 5815 5816 5818 5820 5822 5825 5827 5830 5833 5836 5839 5843 5846 5850
5851 5850 5848 5846 5845 5843 5841 5838 5836 5834 5831 5828 5826 5823 5820 5818 5816 5814 5811 5809 5808 5805 5804 5802 5802 5802 5802 5803 5804 5805 5806 5808 5810 5812 5814 5817 5820 5823 5826 5830 5833 5837 5841
5847 5846 5844 5843 5841 5839 5836 5834 5831 5829 5826 5823 5820 5817 5815 5812 5809 5807 5805 5803 5800 5798 5795 5793 5792 5792 5792 5792 5793 5794 5795 5797 5799 5801 5803 5806 5809 5812 5816 5819 5823 5827 5831
5843 5842 5840 5838 5836 5834 5831 5829 5826 5823 5821 5818 5815 5812 5809 5806 5803 5800 5798 5795 5793 5791 5788 5785 5783 5782 5781 5781 5782 5783 5784 5785 5787 5789 5791 5794 5798 5801 5805 5808 5812 5816 5820
5839 5837 5835 5833 5831 5829 5826 5823 5821 5818 5815 5811 5808 5805 5802 5799 5796 5793 5790 5787 5784 5782 5780 5777 5774 5772 5771 5770 5770 5771 5772 5773 5774 5776 5779 5782 5785 5789 5793 5797 5801 5805 5809
5833 5831 5829 5827 5825 5823 5820 5817 5814 5811 5808 5805 5802 5798 5795 5792 5788 5785 5782 5778 5775 5773 5770 5768 5765 5762 5761 5759 5759 5759 5760 5761 5762 5763 5765 5768 5771 5775 5780 5784 5788 5793 5797
5827 5825 5823 5821 5818 5816 5814 5811 5808 5804 5801 5798 5794 5791 5787 5784 5780 5777 5773 5770 5766 5763 5761 5758 5756 5753 5751 5749 5748 5748 5748 5749 5750 5751 5753 5755 5758 5761 5766 5771 5775 5780 5784
5819 5818 5816 5813 5811 5809 5806 5803 5800 5797 5794 5790 5786 5783 5779 5776 5772 5768 5765 5761 5757 5754 5751 5748 5746 5743 5740 5738 5737 5737 5737 5737 5738 5739 5740 5742 5745 5749 5751 5756 5761 5766 5771
5812 5810 5808 5806 5803 5801 5798 5795 5792 5789 5785 5782 5778 5774 5771 5767 5763 5759 5756 5752 5748 5744 5741 5738 5735 5733 5730 5728 5727 5726 5726 5726 5727 5727 5728 5730 5732 5735 5738 5742 5747 5752 5757
5804 5802 5800 5797 5795 5792 5789 5786 5783 5780 5776 5773 5769 5765 5762 5758 5754 5750 5746 5742 5738 5734 5731 5728 5725 5722 5719 5717 5716 5715 5715 5715 5716 5715 5716 5718 5719 5722 5724 5728 5733 5738 5743
5795 5793 5791 5788 5786 5783 5780 5777 5774 5770 5767 5763 5760 5756 5752 5748 5744 5740 5737 5732 5728 5724 5721 5718 5715 5712 5709 5707 5705 5705 5704 5704 5704 5704 5704 5706 5707 5709 5712 5715 5719 5724 5729
5787 5784 5782 5779 5776 5773 5769 5766 5763 5760 5756 5753 5749 5745 5742 5738 5734 5730 5726 5722 5718 5713 5710 5707 5704 5701 5698 5696 5694 5693 5693 5692 5693 5692 5692 5694 5696 5696 5700 5703 5706 5710 5715
5777 5774 5771 5768 5765 5762 5759 5755 5752 5749 5746 5742 5738 5734 5730 5727 5723 5719 5715 5711 5707 5703 5699 5696 5693 5690 5688 5685 5683 5682 5681 5681 5681 5682 5680 5681 5683 5685 5688 5691 5693 5697 5701